Вернуться в каталог

YAOGAN-30 Z

АктивенВоенныеVLEO
NORAD 48425·PAYLOAD·🇨🇳 China

Запущен May 6, 2021 с Xichang Satellite Launch Center

Loading…

Ближайшие Пролёты (ближайшие 24 часа)

TLE

СвежийSource: Space-Track

Эпоха: Sep 14, 2026, 22:24 UTC

1 48425U 21039C   26257.93393999  .00002192  00000-0  16164-3 0  9999
2 48425  34.9945 203.5636 0001259 179.1768 180.8942 15.03031867293066

Отслеживайте YAOGAN-30 Z в реальном времени с AllMySat

Download on the App Store